Volver al catálogo

MERIDIAN 6

ActivoMilitarHEO
NORAD 38995·PAYLOAD·🇷🇺 Russia

Lanzado Nov 14, 2012 desde Plesetsk Cosmodrome

Loading…

Próximos Pases (próximas 24 horas)

TLE

ActualizadoSource: Space-Track

Época: Sep 13, 2026, 06:42 UTC

1 38995U 12063A   26256.27937459 -.00000555  00000-0  00000-0 0  9999
2 38995  63.7314 342.3406 7373424 227.9931  40.4617  2.00712582101275

Sigue MERIDIAN 6 en tiempo real con AllMySat

Download on the App Store